Year,Month,Day,Hour,Minute,Value (Times are PST for temperature in C)
2009,04,21,00,00,10.40
2009,04,21,00,01,10.40
2009,04,21,00,02,10.40
2009,04,21,00,03,10.40
2009,04,21,00,04,10.40
2009,04,21,00,05,10.40
2009,04,21,00,06,10.40
2009,04,21,00,07,10.40
2009,04,21,00,08,10.40
2009,04,21,00,09,10.40
2009,04,21,00,10,10.40
2009,04,21,00,11,10.40
2009,04,21,00,12,10.40
2009,04,21,00,13,10.40
2009,04,21,00,14,10.40
2009,04,21,00,15,10.40
2009,04,21,00,16,10.40
2009,04,21,00,17,10.30
2009,04,21,00,18,10.30
2009,04,21,00,19,10.30
2009,04,21,00,20,10.30
2009,04,21,00,21,10.30
2009,04,21,00,22,10.20
2009,04,21,00,23,10.20
2009,04,21,00,24,10.20
2009,04,21,00,25,10.10
2009,04,21,00,26,10.10
2009,04,21,00,27,10.10
2009,04,21,00,28,10.10
2009,04,21,00,29,10.10
2009,04,21,00,30,10.10
2009,04,21,00,31,10.00
2009,04,21,00,32,10.00
2009,04,21,00,33,10.00
2009,04,21,00,34,10.00
2009,04,21,00,35,9.90
2009,04,21,00,36,9.90
2009,04,21,00,37,9.90
2009,04,21,00,38,9.90
2009,04,21,00,39,9.90
2009,04,21,00,40,9.90
2009,04,21,00,41,9.80
2009,04,21,00,42,9.80
2009,04,21,00,43,9.80
2009,04,21,00,44,9.80
2009,04,21,00,45,9.80
2009,04,21,00,46,9.80
2009,04,21,00,47,9.80
2009,04,21,00,48,9.70
2009,04,21,00,49,9.70
2009,04,21,00,50,9.70
2009,04,21,00,51,9.70
2009,04,21,00,52,9.70
2009,04,21,00,53,9.70
2009,04,21,00,54,9.70
2009,04,21,00,55,9.70
2009,04,21,00,56,9.70
2009,04,21,00,57,9.70
2009,04,21,00,58,9.70
2009,04,21,00,59,9.60
2009,04,21,01,00,9.60
2009,04,21,01,01,9.60
2009,04,21,01,02,9.60
2009,04,21,01,03,9.60
2009,04,21,01,04,9.60
2009,04,21,01,05,9.60
2009,04,21,01,06,9.60
2009,04,21,01,07,9.60
2009,04,21,01,08,9.50
2009,04,21,01,09,9.50
2009,04,21,01,10,9.50
2009,04,21,01,11,9.50
2009,04,21,01,12,9.50
2009,04,21,01,13,9.50
2009,04,21,01,14,9.40
2009,04,21,01,15,9.40
2009,04,21,01,16,9.40
2009,04,21,01,17,9.40
2009,04,21,01,18,9.40
2009,04,21,01,19,9.40
2009,04,21,01,20,9.40
2009,04,21,01,21,9.40
2009,04,21,01,22,9.30
2009,04,21,01,23,9.30
2009,04,21,01,24,9.30
2009,04,21,01,25,9.30
2009,04,21,01,26,9.30
2009,04,21,01,27,9.20
2009,04,21,01,28,9.20
2009,04,21,01,29,9.20
2009,04,21,01,30,9.20
2009,04,21,01,31,9.20
2009,04,21,01,32,9.20
2009,04,21,01,33,9.10
2009,04,21,01,34,9.10
2009,04,21,01,35,9.10
2009,04,21,01,36,9.10
2009,04,21,01,37,9.10
2009,04,21,01,38,9.10
2009,04,21,01,39,9.10
2009,04,21,01,40,9.00
2009,04,21,01,41,9.00
2009,04,21,01,42,9.00
2009,04,21,01,43,9.00
2009,04,21,01,44,8.90
2009,04,21,01,45,8.90
2009,04,21,01,46,8.90
2009,04,21,01,47,8.90
2009,04,21,01,48,8.90
2009,04,21,01,49,8.90
2009,04,21,01,50,8.80
2009,04,21,01,51,8.80
2009,04,21,01,52,8.80
2009,04,21,01,53,8.80
2009,04,21,01,54,8.80
2009,04,21,01,55,8.80
2009,04,21,01,56,8.80
2009,04,21,01,57,8.70
2009,04,21,01,58,8.70
2009,04,21,01,59,8.70
2009,04,21,02,00,8.70
2009,04,21,02,01,8.70
2009,04,21,02,02,8.70
2009,04,21,02,03,8.70
2009,04,21,02,04,8.60
2009,04,21,02,05,8.60
2009,04,21,02,06,8.60
2009,04,21,02,07,8.60
2009,04,21,02,08,8.60
2009,04,21,02,09,8.50
2009,04,21,02,10,8.50
2009,04,21,02,11,8.50
2009,04,21,02,12,8.50
2009,04,21,02,13,8.40
2009,04,21,02,14,8.40
2009,04,21,02,15,8.40
2009,04,21,02,16,8.40
2009,04,21,02,17,8.40
2009,04,21,02,18,8.40
2009,04,21,02,19,8.40
2009,04,21,02,20,8.30
2009,04,21,02,21,8.30
2009,04,21,02,22,8.30
2009,04,21,02,23,8.30
2009,04,21,02,24,8.30
2009,04,21,02,25,8.30
2009,04,21,02,26,8.30
2009,04,21,02,27,8.30
2009,04,21,02,28,8.30
2009,04,21,02,29,8.30
2009,04,21,02,30,8.30
2009,04,21,02,31,8.30
2009,04,21,02,32,8.20
2009,04,21,02,33,8.20
2009,04,21,02,34,8.20
2009,04,21,02,35,8.20
2009,04,21,02,36,8.20
2009,04,21,02,37,8.20
2009,04,21,02,38,8.20
2009,04,21,02,39,8.20
2009,04,21,02,40,8.20
2009,04,21,02,41,8.20
2009,04,21,02,42,8.20
2009,04,21,02,43,8.20
2009,04,21,02,44,8.10
2009,04,21,02,45,8.10
2009,04,21,02,46,8.10
2009,04,21,02,47,8.10
2009,04,21,02,48,8.10
2009,04,21,02,49,8.00
2009,04,21,02,50,8.00
2009,04,21,02,51,8.00
2009,04,21,02,52,7.90
2009,04,21,02,53,7.90
2009,04,21,02,54,7.90
2009,04,21,02,55,7.90
2009,04,21,02,56,7.90
2009,04,21,02,57,7.90
2009,04,21,02,58,7.90
2009,04,21,02,59,7.90
2009,04,21,03,00,7.80
2009,04,21,03,01,7.80
2009,04,21,03,02,7.80
2009,04,21,03,03,7.80
2009,04,21,03,04,7.80
2009,04,21,03,05,7.80
2009,04,21,03,06,7.80
2009,04,21,03,07,7.80
2009,04,21,03,08,7.80
2009,04,21,03,09,7.80
2009,04,21,03,10,7.80
2009,04,21,03,11,7.80
2009,04,21,03,12,7.70
2009,04,21,03,13,7.70
2009,04,21,03,14,7.70
2009,04,21,03,15,7.70
2009,04,21,03,16,7.70
2009,04,21,03,17,7.70
2009,04,21,03,18,7.70
2009,04,21,03,19,7.70
2009,04,21,03,20,7.70
2009,04,21,03,21,7.70
2009,04,21,03,22,7.70
2009,04,21,03,23,7.70
2009,04,21,03,24,7.70
2009,04,21,03,25,7.70
2009,04,21,03,26,7.70
2009,04,21,03,27,7.70
2009,04,21,03,28,7.70
2009,04,21,03,29,7.70
2009,04,21,03,30,7.70
2009,04,21,03,31,7.70
2009,04,21,03,32,7.70
2009,04,21,03,33,7.70
2009,04,21,03,34,7.70
2009,04,21,03,35,7.70
2009,04,21,03,36,7.70
2009,04,21,03,37,7.70
2009,04,21,03,38,7.70
2009,04,21,03,39,7.70
2009,04,21,03,40,7.70
2009,04,21,03,41,7.70
2009,04,21,03,42,7.70
2009,04,21,03,43,7.70
2009,04,21,03,44,7.70
2009,04,21,03,45,7.70
2009,04,21,03,46,7.60
2009,04,21,03,47,7.60
2009,04,21,03,48,7.60
2009,04,21,03,49,7.60
2009,04,21,03,50,7.60
2009,04,21,03,51,7.60
2009,04,21,03,52,7.60
2009,04,21,03,53,7.60
2009,04,21,03,54,7.60
2009,04,21,03,55,7.60
2009,04,21,03,56,7.60
2009,04,21,03,57,7.60
2009,04,21,03,58,7.60
2009,04,21,03,59,7.60
2009,04,21,04,00,7.60
2009,04,21,04,01,7.60
2009,04,21,04,02,7.60
2009,04,21,04,03,7.60
2009,04,21,04,04,7.60
2009,04,21,04,05,7.60
2009,04,21,04,06,7.60
2009,04,21,04,07,7.60
2009,04,21,04,08,7.50
2009,04,21,04,09,7.50
2009,04,21,04,10,7.50
2009,04,21,04,11,7.50
2009,04,21,04,12,7.50
2009,04,21,04,13,7.40
2009,04,21,04,14,7.40
2009,04,21,04,15,7.40
2009,04,21,04,16,7.40
2009,04,21,04,17,7.40
2009,04,21,04,18,7.40
2009,04,21,04,19,7.40
2009,04,21,04,20,7.40
2009,04,21,04,21,7.40
2009,04,21,04,22,7.40
2009,04,21,04,23,7.30
2009,04,21,04,24,7.30
2009,04,21,04,25,7.30
2009,04,21,04,26,7.30
2009,04,21,04,27,7.30
2009,04,21,04,28,7.30
2009,04,21,04,29,7.30
2009,04,21,04,30,7.30
2009,04,21,04,31,7.30
2009,04,21,04,32,7.30
2009,04,21,04,33,7.30
2009,04,21,04,34,7.20
2009,04,21,04,35,7.20
2009,04,21,04,36,7.20
2009,04,21,04,37,7.20
2009,04,21,04,38,7.20
2009,04,21,04,39,7.20
2009,04,21,04,40,7.20
2009,04,21,04,41,7.20
2009,04,21,04,42,7.20
2009,04,21,04,43,7.20
2009,04,21,04,44,7.20
2009,04,21,04,45,7.20
2009,04,21,04,46,7.20
2009,04,21,04,47,7.20
2009,04,21,04,48,7.20
2009,04,21,04,49,7.20
2009,04,21,04,50,7.20
2009,04,21,04,51,7.20
2009,04,21,04,52,7.20
2009,04,21,04,53,7.20
2009,04,21,04,54,7.20
2009,04,21,04,55,7.10
2009,04,21,04,56,7.10
2009,04,21,04,57,7.10
2009,04,21,04,58,7.10
2009,04,21,04,59,7.10
2009,04,21,05,00,7.00
2009,04,21,05,01,7.00
2009,04,21,05,02,7.00
2009,04,21,05,03,7.00
2009,04,21,05,04,6.90
2009,04,21,05,05,6.90
2009,04,21,05,06,6.90
2009,04,21,05,07,6.90
2009,04,21,05,08,6.90
2009,04,21,05,09,6.80
2009,04,21,05,10,6.80
2009,04,21,05,11,6.80
2009,04,21,05,12,6.80
2009,04,21,05,13,6.80
2009,04,21,05,14,6.80
2009,04,21,05,15,6.80
2009,04,21,05,16,6.70
2009,04,21,05,17,6.70
2009,04,21,05,18,6.70
2009,04,21,05,19,6.70
2009,04,21,05,20,6.70
2009,04,21,05,21,6.70
2009,04,21,05,22,6.70
2009,04,21,05,23,6.70
2009,04,21,05,24,6.70
2009,04,21,05,25,6.80
2009,04,21,05,26,6.80
2009,04,21,05,27,6.80
2009,04,21,05,28,6.80
2009,04,21,05,29,6.80
2009,04,21,05,30,6.80
2009,04,21,05,31,6.80
2009,04,21,05,32,6.80
2009,04,21,05,33,6.80
2009,04,21,05,34,6.80
2009,04,21,05,35,6.80
2009,04,21,05,36,6.80
2009,04,21,05,37,6.80
2009,04,21,05,38,6.80
2009,04,21,05,39,6.80
2009,04,21,05,40,6.70
2009,04,21,05,41,6.70
2009,04,21,05,42,6.70
2009,04,21,05,43,6.70
2009,04,21,05,44,6.70
2009,04,21,05,45,6.70
2009,04,21,05,46,6.70
2009,04,21,05,47,6.70
2009,04,21,05,48,6.70
2009,04,21,05,49,6.70
2009,04,21,05,50,6.70
2009,04,21,05,51,6.60
2009,04,21,05,52,6.60
2009,04,21,05,53,6.60
2009,04,21,05,54,6.60
2009,04,21,05,55,6.60
2009,04,21,05,56,6.60
2009,04,21,05,57,6.60
2009,04,21,05,58,6.60
2009,04,21,05,59,6.60
2009,04,21,06,00,6.60
2009,04,21,06,01,6.60
2009,04,21,06,02,6.60
2009,04,21,06,03,6.60
2009,04,21,06,04,6.50
2009,04,21,06,05,6.50
2009,04,21,06,06,6.50
2009,04,21,06,07,6.50
2009,04,21,06,08,6.50
2009,04,21,06,09,6.50
2009,04,21,06,10,6.50
2009,04,21,06,11,6.40
2009,04,21,06,12,6.40
2009,04,21,06,13,6.40
2009,04,21,06,14,6.40
2009,04,21,06,15,6.40
2009,04,21,06,16,6.40
2009,04,21,06,17,6.40
2009,04,21,06,18,6.30
2009,04,21,06,19,6.30
2009,04,21,06,20,6.30
2009,04,21,06,21,6.30
2009,04,21,06,22,6.30
2009,04,21,06,23,6.30
2009,04,21,06,24,6.30
2009,04,21,06,25,6.30
2009,04,21,06,26,6.30
2009,04,21,06,27,6.30
2009,04,21,06,28,6.30
2009,04,21,06,29,6.30
2009,04,21,06,30,6.30
2009,04,21,06,31,6.30
2009,04,21,06,32,6.30
2009,04,21,06,33,6.30
2009,04,21,06,34,6.30
2009,04,21,06,35,6.30
2009,04,21,06,36,6.30
2009,04,21,06,37,6.30
2009,04,21,06,38,6.30
2009,04,21,06,39,6.30
2009,04,21,06,40,6.30
2009,04,21,06,41,6.30
2009,04,21,06,42,6.30
2009,04,21,06,43,6.40
2009,04,21,06,44,6.40
2009,04,21,06,45,6.40
2009,04,21,06,46,6.40
2009,04,21,06,47,6.40
2009,04,21,06,48,6.40
2009,04,21,06,49,6.40
2009,04,21,06,50,6.40
2009,04,21,06,51,6.40
2009,04,21,06,52,6.40
2009,04,21,06,53,6.50
2009,04,21,06,54,6.50
2009,04,21,06,55,6.50
2009,04,21,06,56,6.50
2009,04,21,06,57,6.50
2009,04,21,06,58,6.50
2009,04,21,06,59,6.50
2009,04,21,07,00,6.60
2009,04,21,07,01,6.60
2009,04,21,07,02,6.60
2009,04,21,07,03,6.60
2009,04,21,07,04,6.60
2009,04,21,07,05,6.60
2009,04,21,07,06,6.60
2009,04,21,07,07,6.70
2009,04,21,07,08,6.70
2009,04,21,07,09,6.70
2009,04,21,07,10,6.70
2009,04,21,07,11,6.70
2009,04,21,07,12,6.70
2009,04,21,07,13,6.80
2009,04,21,07,14,6.80
2009,04,21,07,15,6.80
2009,04,21,07,16,6.90
2009,04,21,07,17,6.90
2009,04,21,07,18,6.90
2009,04,21,07,19,6.90
2009,04,21,07,20,7.00
2009,04,21,07,21,7.00
2009,04,21,07,22,7.10
2009,04,21,07,23,7.10
2009,04,21,07,24,7.10
2009,04,21,07,25,7.20
2009,04,21,07,26,7.20
2009,04,21,07,27,7.20
2009,04,21,07,28,7.20
2009,04,21,07,29,7.30
2009,04,21,07,30,7.30
2009,04,21,07,31,7.40
2009,04,21,07,32,7.40
2009,04,21,07,33,7.40
2009,04,21,07,34,7.50
2009,04,21,07,35,7.50
2009,04,21,07,36,7.60
2009,04,21,07,37,7.70
2009,04,21,07,38,7.80
2009,04,21,07,39,8.00
2009,04,21,07,40,8.20
2009,04,21,07,41,8.30
2009,04,21,07,42,8.50
2009,04,21,07,43,8.60
2009,04,21,07,44,8.70
2009,04,21,07,45,8.80
2009,04,21,07,46,8.90
2009,04,21,07,47,8.90
2009,04,21,07,48,9.00
2009,04,21,07,49,9.10
2009,04,21,07,50,9.10
2009,04,21,07,51,9.10
2009,04,21,07,52,9.20
2009,04,21,07,53,9.20
2009,04,21,07,54,9.20
2009,04,21,07,55,9.20
2009,04,21,07,56,9.30
2009,04,21,07,57,9.30
2009,04,21,07,58,9.30
2009,04,21,07,59,9.30
2009,04,21,08,00,9.40
2009,04,21,08,01,9.40
2009,04,21,08,02,9.40
2009,04,21,08,03,9.50
2009,04,21,08,04,9.50
2009,04,21,08,05,9.70
2009,04,21,08,06,9.80
2009,04,21,08,07,9.90
2009,04,21,08,08,10.00
2009,04,21,08,09,10.10
2009,04,21,08,10,10.20
2009,04,21,08,11,10.30
2009,04,21,08,12,10.30
2009,04,21,08,13,10.30
2009,04,21,08,14,10.40
2009,04,21,08,15,10.40
2009,04,21,08,16,10.50
2009,04,21,08,17,10.50
2009,04,21,08,18,10.50
2009,04,21,08,19,10.60
2009,04,21,08,20,10.70
2009,04,21,08,21,10.80
2009,04,21,08,22,10.90
2009,04,21,08,23,11.00
2009,04,21,08,24,11.10
2009,04,21,08,25,11.20
2009,04,21,08,26,11.20
2009,04,21,08,27,11.30
2009,04,21,08,28,11.30
2009,04,21,08,29,11.40
2009,04,21,08,30,11.40
2009,04,21,08,31,11.40
2009,04,21,08,32,11.40
2009,04,21,08,33,11.50
2009,04,21,08,34,11.50
2009,04,21,08,35,11.50
2009,04,21,08,36,11.50
2009,04,21,08,37,11.60
2009,04,21,08,38,11.60
2009,04,21,08,39,11.50
2009,04,21,08,40,11.50
2009,04,21,08,41,11.50
2009,04,21,08,42,11.60
2009,04,21,08,43,11.60
2009,04,21,08,44,11.60
2009,04,21,08,45,11.60
2009,04,21,08,46,11.60
2009,04,21,08,47,11.60
2009,04,21,08,48,11.60
2009,04,21,08,49,11.60
2009,04,21,08,50,11.60
2009,04,21,08,51,11.60
2009,04,21,08,52,11.60
2009,04,21,08,53,11.60
2009,04,21,08,54,11.70
2009,04,21,08,55,11.70
2009,04,21,08,56,11.70
2009,04,21,08,57,11.70
2009,04,21,08,58,11.70
2009,04,21,08,59,11.70
2009,04,21,09,00,11.70
2009,04,21,09,01,11.70
2009,04,21,09,02,11.80
2009,04,21,09,03,11.80
2009,04,21,09,04,11.80
2009,04,21,09,05,11.90
2009,04,21,09,06,11.90
2009,04,21,09,07,11.90
2009,04,21,09,08,11.90
2009,04,21,09,09,11.90
2009,04,21,09,10,11.90
2009,04,21,09,11,11.90
2009,04,21,09,12,11.80
2009,04,21,09,13,11.80
2009,04,21,09,14,11.80
2009,04,21,09,15,11.70
2009,04,21,09,16,11.80
2009,04,21,09,17,11.80
2009,04,21,09,18,11.70
2009,04,21,09,19,11.70
2009,04,21,09,20,11.70
2009,04,21,09,21,11.70
2009,04,21,09,22,11.70
2009,04,21,09,23,11.70
2009,04,21,09,24,11.70
2009,04,21,09,25,11.70
2009,04,21,09,26,11.70
2009,04,21,09,27,11.70
2009,04,21,09,28,11.70
2009,04,21,09,29,11.70
2009,04,21,09,30,11.70
2009,04,21,09,31,11.70
2009,04,21,09,32,11.60
2009,04,21,09,33,11.60
2009,04,21,09,34,11.60
2009,04,21,09,35,11.50
2009,04,21,09,36,11.50
2009,04,21,09,37,11.50
2009,04,21,09,38,11.50
2009,04,21,09,39,11.50
2009,04,21,09,40,11.50
2009,04,21,09,41,11.50
2009,04,21,09,42,11.60
2009,04,21,09,43,11.60
2009,04,21,09,44,11.60
2009,04,21,09,45,11.60
2009,04,21,09,46,11.60
2009,04,21,09,47,11.70
2009,04,21,09,48,11.80
2009,04,21,09,49,11.80
2009,04,21,09,50,11.80
2009,04,21,09,51,11.80
2009,04,21,09,52,11.90
2009,04,21,09,53,11.90
2009,04,21,09,54,12.00
2009,04,21,09,55,12.10
2009,04,21,09,56,12.10
2009,04,21,09,57,12.10
2009,04,21,09,58,12.10
2009,04,21,09,59,12.10
2009,04,21,10,00,12.10
2009,04,21,10,01,12.10
2009,04,21,10,02,12.20
2009,04,21,10,03,12.30
2009,04,21,10,04,12.30
2009,04,21,10,05,12.30
2009,04,21,10,06,12.30
2009,04,21,10,07,12.40
2009,04,21,10,08,12.30
2009,04,21,10,09,12.30
2009,04,21,10,10,12.30
2009,04,21,10,11,12.40
2009,04,21,10,12,12.40
2009,04,21,10,13,12.40
2009,04,21,10,14,12.50
2009,04,21,10,15,12.50
2009,04,21,10,16,12.60
2009,04,21,10,17,12.60
2009,04,21,10,18,12.60
2009,04,21,10,19,12.70
2009,04,21,10,20,12.70
2009,04,21,10,21,12.80
2009,04,21,10,22,12.90
2009,04,21,10,23,13.00
2009,04,21,10,24,13.10
2009,04,21,10,25,13.20
2009,04,21,10,26,13.20
2009,04,21,10,27,13.00
2009,04,21,10,28,12.80
2009,04,21,10,29,12.50
2009,04,21,10,30,12.30
2009,04,21,10,31,12.10
2009,04,21,10,32,12.00
2009,04,21,10,33,12.10
2009,04,21,10,34,12.10
2009,04,21,10,35,12.20
2009,04,21,10,36,12.20
2009,04,21,10,37,12.20
2009,04,21,10,38,12.30
2009,04,21,10,39,12.30
2009,04,21,10,40,12.40
2009,04,21,10,41,12.40
2009,04,21,10,42,12.40
2009,04,21,10,43,12.40
2009,04,21,10,44,12.60
2009,04,21,10,45,12.70
2009,04,21,10,46,12.80
2009,04,21,10,47,12.80
2009,04,21,10,48,12.80
2009,04,21,10,49,12.90
2009,04,21,10,50,13.00
2009,04,21,10,51,13.10
2009,04,21,10,52,13.20
2009,04,21,10,53,13.30
2009,04,21,10,54,13.40
2009,04,21,10,55,13.50
2009,04,21,10,56,13.50
2009,04,21,10,57,13.60
2009,04,21,10,58,13.70
2009,04,21,10,59,13.80
2009,04,21,11,00,13.80
2009,04,21,11,01,13.90
2009,04,21,11,02,13.80
2009,04,21,11,03,13.80
2009,04,21,11,04,13.90
2009,04,21,11,05,13.90
2009,04,21,11,06,13.80
2009,04,21,11,07,13.80
2009,04,21,11,08,13.70
2009,04,21,11,09,13.70
2009,04,21,11,10,13.70
2009,04,21,11,11,13.60
2009,04,21,11,12,13.60
2009,04,21,11,13,13.60
2009,04,21,11,14,13.50
2009,04,21,11,15,13.50
2009,04,21,11,16,13.50
2009,04,21,11,17,13.50
2009,04,21,11,18,13.60
2009,04,21,11,19,13.60
2009,04,21,11,20,13.60
2009,04,21,11,21,13.60
2009,04,21,11,22,13.70
2009,04,21,11,23,13.70
2009,04,21,11,24,13.70
2009,04,21,11,25,13.80
2009,04,21,11,26,13.80
2009,04,21,11,27,13.80
2009,04,21,11,28,13.80
2009,04,21,11,29,13.80
2009,04,21,11,30,13.80
2009,04,21,11,31,13.90
2009,04,21,11,32,13.90
2009,04,21,11,33,13.90
2009,04,21,11,34,14.00
2009,04,21,11,35,14.10
2009,04,21,11,36,14.30
2009,04,21,11,37,14.50
2009,04,21,11,38,14.70
2009,04,21,11,39,14.90
2009,04,21,11,40,15.10
2009,04,21,11,41,15.40
2009,04,21,11,42,15.80
2009,04,21,11,43,16.10
2009,04,21,11,44,16.40
2009,04,21,11,45,16.70
2009,04,21,11,46,16.90
2009,04,21,11,47,17.20
2009,04,21,11,48,17.40
2009,04,21,11,49,17.60
2009,04,21,11,50,17.70
2009,04,21,11,51,17.80
2009,04,21,11,52,17.80
2009,04,21,11,53,17.90
2009,04,21,11,54,17.90
2009,04,21,11,55,18.00
2009,04,21,11,56,18.10
2009,04,21,11,57,18.10
2009,04,21,11,58,18.20
2009,04,21,11,59,18.20
2009,04,21,12,00,18.20
2009,04,21,12,01,18.20
2009,04,21,12,02,18.30
2009,04,21,12,03,18.30
2009,04,21,12,04,18.40
2009,04,21,12,05,18.50
2009,04,21,12,06,18.60
2009,04,21,12,07,18.60
2009,04,21,12,08,18.80
2009,04,21,12,09,18.90
2009,04,21,12,10,18.90
2009,04,21,12,11,19.00
2009,04,21,12,12,19.10
2009,04,21,12,13,19.20
2009,04,21,12,14,19.20
2009,04,21,12,15,19.30
2009,04,21,12,16,19.30
2009,04,21,12,17,19.40
2009,04,21,12,18,19.40
2009,04,21,12,19,19.50
2009,04,21,12,20,19.50
2009,04,21,12,21,19.60
2009,04,21,12,22,19.60
2009,04,21,12,23,19.60
2009,04,21,12,24,19.50
2009,04,21,12,25,19.50
2009,04,21,12,26,19.30
2009,04,21,12,27,19.20
2009,04,21,12,28,19.10
2009,04,21,12,29,19.00
2009,04,21,12,30,19.00
2009,04,21,12,31,18.90
2009,04,21,12,32,18.80
2009,04,21,12,33,18.90
2009,04,21,12,34,18.90
2009,04,21,12,35,18.90
2009,04,21,12,36,18.80
2009,04,21,12,37,18.80
2009,04,21,12,38,18.80
2009,04,21,12,39,18.90
2009,04,21,12,40,19.00
2009,04,21,12,41,19.10
2009,04,21,12,42,19.20
2009,04,21,12,43,19.30
2009,04,21,12,44,19.30
2009,04,21,12,45,19.40
2009,04,21,12,46,19.50
2009,04,21,12,47,19.60
2009,04,21,12,48,19.70
2009,04,21,12,49,19.70
2009,04,21,12,50,19.70
2009,04,21,12,51,19.80
2009,04,21,12,52,19.80
2009,04,21,12,53,19.80
2009,04,21,12,54,19.80
2009,04,21,12,55,19.80
2009,04,21,12,56,19.80
2009,04,21,12,57,19.80
2009,04,21,12,58,19.90
2009,04,21,12,59,19.90
2009,04,21,13,00,20.00
2009,04,21,13,01,20.00
2009,04,21,13,02,20.00
2009,04,21,13,03,20.00
2009,04,21,13,04,20.00
2009,04,21,13,05,20.10
2009,04,21,13,06,20.00
2009,04,21,13,07,20.00
2009,04,21,13,08,19.90
2009,04,21,13,09,19.90
2009,04,21,13,10,19.80
2009,04,21,13,11,19.80
2009,04,21,13,12,19.80
2009,04,21,13,13,19.90
2009,04,21,13,14,20.00
2009,04,21,13,15,20.10
2009,04,21,13,16,20.20
2009,04,21,13,17,20.20
2009,04,21,13,18,20.30
2009,04,21,13,19,20.30
2009,04,21,13,20,20.30
2009,04,21,13,21,20.40
2009,04,21,13,22,20.30
2009,04,21,13,23,20.30
2009,04,21,13,24,20.40
2009,04,21,13,25,20.40
2009,04,21,13,26,20.40
2009,04,21,13,27,20.50
2009,04,21,13,28,20.60
2009,04,21,13,29,20.60
2009,04,21,13,30,20.70
2009,04,21,13,31,20.70
2009,04,21,13,32,20.80
2009,04,21,13,33,20.80
2009,04,21,13,34,20.80
2009,04,21,13,35,20.80
2009,04,21,13,36,20.80
2009,04,21,13,37,20.80
2009,04,21,13,38,20.90
2009,04,21,13,39,20.90
2009,04,21,13,40,20.90
2009,04,21,13,41,20.80
2009,04,21,13,42,20.70
2009,04,21,13,43,20.70
2009,04,21,13,44,20.70
2009,04,21,13,45,20.70
2009,04,21,13,46,20.70
2009,04,21,13,47,20.60
2009,04,21,13,48,20.60
2009,04,21,13,49,20.60
2009,04,21,13,50,20.60
2009,04,21,13,51,20.70
2009,04,21,13,52,20.70
2009,04,21,13,53,20.70
2009,04,21,13,54,20.80
2009,04,21,13,55,20.80
2009,04,21,13,56,20.70
2009,04,21,13,57,20.70
2009,04,21,13,58,20.70
2009,04,21,13,59,20.70
2009,04,21,14,00,20.70
2009,04,21,14,01,20.70
2009,04,21,14,02,20.60
2009,04,21,14,03,20.50
2009,04,21,14,04,20.40
2009,04,21,14,05,20.40
2009,04,21,14,06,20.40
2009,04,21,14,07,20.30
2009,04,21,14,08,20.40
2009,04,21,14,09,20.30
2009,04,21,14,10,20.40
2009,04,21,14,11,20.40
2009,04,21,14,12,20.60
2009,04,21,14,13,20.70
2009,04,21,14,14,20.90
2009,04,21,14,15,20.90
2009,04,21,14,16,20.90
2009,04,21,14,17,20.80
2009,04,21,14,18,20.80
2009,04,21,14,19,20.80
2009,04,21,14,20,20.80
2009,04,21,14,21,20.80
2009,04,21,14,22,20.90
2009,04,21,14,23,21.00
2009,04,21,14,24,21.10
2009,04,21,14,25,21.10
2009,04,21,14,26,21.10
2009,04,21,14,27,21.10
2009,04,21,14,28,21.20
2009,04,21,14,29,21.20
2009,04,21,14,30,21.30
2009,04,21,14,31,21.30
2009,04,21,14,32,21.40
2009,04,21,14,33,21.30
2009,04,21,14,34,21.20
2009,04,21,14,35,21.20
2009,04,21,14,36,21.10
2009,04,21,14,37,21.10
2009,04,21,14,38,21.10
2009,04,21,14,39,21.20
2009,04,21,14,40,21.20
2009,04,21,14,41,21.10
2009,04,21,14,42,21.10
2009,04,21,14,43,21.10
2009,04,21,14,44,21.10
2009,04,21,14,45,21.20
2009,04,21,14,46,21.20
2009,04,21,14,47,21.20
2009,04,21,14,48,21.20
2009,04,21,14,49,21.10
2009,04,21,14,50,21.10
2009,04,21,14,51,21.00
2009,04,21,14,52,21.00
2009,04,21,14,53,21.00
2009,04,21,14,54,21.00
2009,04,21,14,55,21.10
2009,04,21,14,56,21.10
2009,04,21,14,57,21.30
2009,04,21,14,58,21.30
2009,04,21,14,59,21.30
2009,04,21,15,00,21.20
2009,04,21,15,01,21.10
2009,04,21,15,02,21.00
2009,04,21,15,03,21.10
2009,04,21,15,04,21.00
2009,04,21,15,05,21.10
2009,04,21,15,06,21.10
2009,04,21,15,07,21.00
2009,04,21,15,08,20.90
2009,04,21,15,09,20.80
2009,04,21,15,10,20.80
2009,04,21,15,11,20.80
2009,04,21,15,12,20.80
2009,04,21,15,13,20.70
2009,04,21,15,14,20.60
2009,04,21,15,15,20.60
2009,04,21,15,16,20.60
2009,04,21,15,17,20.60
2009,04,21,15,18,20.70
2009,04,21,15,19,20.60
2009,04,21,15,20,20.60
2009,04,21,15,21,20.60
2009,04,21,15,22,20.70
2009,04,21,15,23,20.80
2009,04,21,15,24,20.80
2009,04,21,15,25,20.70
2009,04,21,15,26,20.60
2009,04,21,15,27,20.60
2009,04,21,15,28,20.60
2009,04,21,15,29,20.60
2009,04,21,15,30,20.60
2009,04,21,15,31,20.40
2009,04,21,15,32,20.30
2009,04,21,15,33,20.30
2009,04,21,15,34,20.30
2009,04,21,15,35,20.40
2009,04,21,15,36,20.40
2009,04,21,15,37,20.50
2009,04,21,15,38,20.60
2009,04,21,15,39,20.70
2009,04,21,15,40,20.70
2009,04,21,15,41,20.70
2009,04,21,15,42,20.70
2009,04,21,15,43,20.80
2009,04,21,15,44,20.90
2009,04,21,15,45,21.00
2009,04,21,15,46,21.10
2009,04,21,15,47,21.10
2009,04,21,15,48,21.10
2009,04,21,15,49,21.00
2009,04,21,15,50,21.00
2009,04,21,15,51,21.00
2009,04,21,15,52,21.00
2009,04,21,15,53,20.90
2009,04,21,15,54,20.90
2009,04,21,15,55,20.90
2009,04,21,15,56,20.80
2009,04,21,15,57,20.80
2009,04,21,15,58,20.90
2009,04,21,15,59,20.90
2009,04,21,16,00,20.80
2009,04,21,16,01,20.70
2009,04,21,16,02,20.80
2009,04,21,16,03,20.80
2009,04,21,16,04,20.90
2009,04,21,16,05,20.90
2009,04,21,16,06,21.00
2009,04,21,16,07,21.00
2009,04,21,16,08,21.10
2009,04,21,16,09,21.10
2009,04,21,16,10,21.10
2009,04,21,16,11,21.10
2009,04,21,16,12,21.00
2009,04,21,16,13,20.90
2009,04,21,16,14,20.80
2009,04,21,16,15,20.90
2009,04,21,16,16,20.90
2009,04,21,16,17,20.90
2009,04,21,16,18,20.80
2009,04,21,16,19,20.70
2009,04,21,16,20,20.70
2009,04,21,16,21,20.80
2009,04,21,16,22,20.80
2009,04,21,16,23,20.80
2009,04,21,16,24,20.80
2009,04,21,16,25,20.70
2009,04,21,16,26,20.70
2009,04,21,16,27,20.70
2009,04,21,16,28,20.70
2009,04,21,16,29,20.70
2009,04,21,16,30,20.70
2009,04,21,16,31,20.80
2009,04,21,16,32,20.70
2009,04,21,16,33,20.70
2009,04,21,16,34,20.60
2009,04,21,16,35,20.50
2009,04,21,16,36,20.40
2009,04,21,16,37,20.30
2009,04,21,16,38,20.30
2009,04,21,16,39,20.20
2009,04,21,16,40,20.00
2009,04,21,16,41,20.00
2009,04,21,16,42,19.90
2009,04,21,16,43,19.90
2009,04,21,16,44,19.90
2009,04,21,16,45,20.00
2009,04,21,16,46,20.10
2009,04,21,16,47,20.10
2009,04,21,16,48,20.10
2009,04,21,16,49,20.10
2009,04,21,16,50,20.10
2009,04,21,16,51,20.10
2009,04,21,16,52,20.10
2009,04,21,16,53,20.20
2009,04,21,16,54,20.20
2009,04,21,16,55,20.20
2009,04,21,16,56,20.30
2009,04,21,16,57,20.30
2009,04,21,16,58,20.30
2009,04,21,16,59,20.20
2009,04,21,17,00,20.20
2009,04,21,17,01,20.20
2009,04,21,17,02,20.20
2009,04,21,17,03,20.10
2009,04,21,17,04,20.00
2009,04,21,17,05,20.00
2009,04,21,17,06,19.90
2009,04,21,17,07,19.80
2009,04,21,17,08,19.70
2009,04,21,17,09,19.70
2009,04,21,17,10,19.60
2009,04,21,17,11,19.60
2009,04,21,17,12,19.60
2009,04,21,17,13,19.50
2009,04,21,17,14,19.40
2009,04,21,17,15,19.40
2009,04,21,17,16,19.30
2009,04,21,17,17,19.30
2009,04,21,17,18,19.20
2009,04,21,17,19,19.20
2009,04,21,17,20,19.20
2009,04,21,17,21,19.20
2009,04,21,17,22,19.10
2009,04,21,17,23,19.20
2009,04,21,17,24,19.20
2009,04,21,17,25,19.10
2009,04,21,17,26,19.10
2009,04,21,17,27,19.10
2009,04,21,17,28,19.20
2009,04,21,17,29,19.20
2009,04,21,17,30,19.10
2009,04,21,17,31,19.00
2009,04,21,17,32,18.90
2009,04,21,17,33,18.80
2009,04,21,17,34,18.70
2009,04,21,17,35,18.60
2009,04,21,17,36,18.50
2009,04,21,17,37,18.40
2009,04,21,17,38,18.40
2009,04,21,17,39,18.30